Home > Weather > Jakobstad > Past weeks

Flag for Finland Past Weather in Jakobstad, Finland — Yesterday and Last 2 Weeks

Now
61 °F

Sunny.


Feels Like: 61 °F
Forecast: 49 / 69 °F
Wind: 1 mph from Northwest

Location: Kruunupyy

Current Time: Jun 25, 2016 at 8:14:37 AM

Latest Report: Jun 25, 2016 at 7:20 AM


Visibility: 10 mi

Pressure: 29.92 "Hg

Humidity: 88%

Dew Point: 57 °F

Location of JakobstadLocation

Past Weather in Jakobstad — Graph

°F

Jakobstad Temperature Yesterday

Maximum temperature yesterday: 73 °F (at 2:20 PM)
Minimum temperature yesterday: 46 °F (at 3:20 AM)
Average temperature yesterday: 62 °F

High & Low Weather Summary for the Past Weeks

 TemperatureHumidityPressure
High73 °F (Jun 23, 12:50 PM)100% (Jun 10, 6:20 AM)30.15 "Hg (Jun 10, 6:20 AM)
Low36 °F (Jun 13, 2:50 AM)32% (Jun 13, 12:20 PM)29.27 "Hg (Jun 18, 3:50 PM)
Average56 °F75%29.81 "Hg
* Reported Jun 10 6:20 AM — Jun 25 6:50 AM, Jakobstad, Weather by CustomWeather, © 2016

Note: Actual official high and low records may vary slightly from our data, if they occured in-between our weather recording intervals... More about our weather records

Advertising

Jakobstad Weather History for the Previous 24 Hours

Scroll right to see more
 ConditionsComfort  
Time TempWeatherWind HumidityBarometerVisibility
6:50 AM
Sat, Jun 25
59 °FSunny.2 mph94%29.92 "Hg10 mi
6:20 AM59 °FSunny.No wind88%29.92 "Hg10 mi
5:50 AM55 °FSunny.2 mph100%29.95 "Hg10 mi
5:20 AM54 °FSunny.No wind94%29.92 "Hg10 mi
4:50 AM54 °FPassing clouds.No wind100%29.92 "Hg5 mi
4:20 AM54 °FPartly sunny.No wind100%29.95 "Hg4 mi
3:50 AM55 °FClear.No wind94%29.95 "Hg10 mi
3:20 AM55 °FClear.No wind94%29.95 "Hg10 mi
2:50 AM55 °FClear.1 mph94%29.95 "Hg10 mi
2:20 AM55 °FClear.No wind94%29.98 "Hg10 mi
1:50 AM55 °FClear.No wind94%29.98 "Hg10 mi
1:20 AM55 °FPassing clouds.No wind100%29.98 "Hg4 mi
12:50 AM57 °FSunny.No wind94%29.98 "Hg10 mi
12:20 AM57 °FSunny.No wind94%29.98 "Hg10 mi
11:50 PM
Fri, Jun 24
59 °FSunny.No wind94%29.98 "Hg10 mi
11:20 PM61 °FSunny.No wind88%29.98 "Hg10 mi
10:50 PM63 °FSunny.3 mph83%29.98 "Hg10 mi
10:20 PM64 °FSunny.3 mph78%29.98 "Hg10 mi
9:50 PM64 °FSunny.3 mph78%29.98 "Hg10 mi
9:20 PM66 °FSunny.3 mph73%29.98 "Hg10 mi
8:50 PM68 °FPassing clouds.5 mph60%30.01 "HgN/A
8:20 PM68 °FPassing clouds.5 mph64%30.01 "HgN/A
7:50 PM70 °FPassing clouds.1 mph57%30.01 "HgN/A
7:20 PM70 °FPassing clouds.3 mph60%30.01 "HgN/A
6:50 PM70 °FPassing clouds.6 mph57%30.01 "HgN/A
6:20 PM70 °FPassing clouds.7 mph64%30.01 "HgN/A
5:50 PM72 °FPassing clouds.8 mph61%30.01 "HgN/A
5:20 PM72 °FScattered clouds.7 mph61%30.01 "HgN/A
4:50 PM70 °FScattered clouds.8 mph69%30.04 "HgN/A
4:20 PM70 °FPassing clouds.7 mph69%30.04 "HgN/A
3:50 PM73 °FPartly sunny.6 mph61%30.04 "HgN/A
3:20 PM73 °FPartly sunny.3 mph50%30.04 "HgN/A
2:50 PM73 °FPassing clouds.2 mph50%30.04 "HgN/A
2:20 PM73 °FSunny.3 mph47%30.04 "Hg10 mi
1:50 PM72 °FPassing clouds.2 mph50%30.04 "HgN/A
1:20 PM72 °FScattered clouds.5 mph53%30.07 "HgN/A
12:50 PM72 °FPassing clouds.6 mph61%30.07 "HgN/A
12:20 PM70 °FPassing clouds.5 mph57%30.07 "HgN/A
11:50 AM68 °FPassing clouds.5 mph64%30.09 "HgN/A
11:20 AM68 °FPassing clouds.5 mph64%30.09 "HgN/A
10:50 AM66 °FScattered clouds.7 mph68%30.09 "HgN/A
10:20 AM66 °FPassing clouds.7 mph73%30.09 "HgN/A
9:50 AM63 °FPassing clouds.6 mph83%30.09 "HgN/A
9:20 AM61 °FScattered clouds.3 mph94%30.09 "HgN/A
8:50 AM59 °FBroken clouds.5 mph94%30.09 "HgN/A
8:20 AM57 °FPartly sunny.3 mph100%30.09 "HgN/A
Weather by CustomWeather, © 2016

See weather overviewHow to use our weather pages